This is the latest recevied weather packets stored in our database for station/object SV9TNF-57. If no packets are shown the sender has not sent any weather packets the latest 10 day(s).
| Time | Temp. | Humidity | Pressure | Rain* | Wind** | Luminosity | Snow |
|---|---|---|---|---|---|---|---|
| 1788606761 | 31.67° C | 31% | 996.7 hPa | 0 mm | 22.8 m/s, 351° | - | - |
| 1788606461 | 31.67° C | 30% | 996.9 hPa | 0 mm | 2.68 m/s, 349° | - | - |
| 1788606161 | 32.22° C | 28% | 996.8 hPa | 0 mm | 9.83 m/s, 348° | - | - |
| 1788605861 | 31.67° C | 29% | 997.1 hPa | 0 mm | 4.92 m/s, 293° | - | - |
| 1788605561 | 31.67° C | 29% | 997.1 hPa | 0 mm | 8.05 m/s, 268° | - | - |
| 1788605261 | 31.67° C | 28% | 996.9 hPa | 0 mm | 9.39 m/s, 314° | - | - |
| 1788604961 | 31.67° C | 30% | 996.9 hPa | 0 mm | 7.15 m/s, 288° | - | - |
| 1788604660 | 31.67° C | 30% | 996.9 hPa | 0 mm | 2.24 m/s, 237° | - | - |
| 1788604382 | 31.11° C | 30% | 996.8 hPa | 0 mm | 7.15 m/s, 309° | - | - |
| 1788604060 | 31.67° C | 30% | 996.8 hPa | 0 mm | 10.28 m/s, 3° | - | - |
| 1788603760 | 31.11° C | 30% | 997.2 hPa | 0 mm | 2.24 m/s, 151° | - | - |
| 1788603460 | 31.11° C | 30% | 997.1 hPa | 0 mm | 8.05 m/s, 236° | - | - |
| 1788603160 | 31.11° C | 31% | 997.3 hPa | 0 mm | 8.05 m/s, 42° | - | - |
| 1788602860 | 31.11° C | 31% | 997.3 hPa | 0 mm | 15.2 m/s, 313° | - | - |
| 1788602560 | 31.11° C | 31% | 997.1 hPa | 0 mm | 15.65 m/s, 325° | - | - |
| 1788602260 | 31.11° C | 30% | 997.3 hPa | 0 mm | 8.49 m/s, 12° | - | - |
| 1788601960 | 31.11° C | 31% | 997.5 hPa | 0 mm | 8.49 m/s, 1° | - | - |
| 1788601659 | 31.11° C | 31% | 997.3 hPa | 0 mm | 1.79 m/s, 290° | - | - |
| 1788601359 | 30.56° C | 31% | 997.6 hPa | 0 mm | 15.65 m/s, 324° | - | - |
| 1788601059 | 30.56° C | 32% | 997.7 hPa | 0 mm | 12.07 m/s, 346° | - | - |
| 1788600759 | 31.11° C | 31% | 997.7 hPa | 0 mm | 13.41 m/s, 341° | - | - |
| 1788600459 | 31.11° C | 31% | 997.6 hPa | 0 mm | 12.96 m/s, 352° | - | - |
| 1788600159 | 30.56° C | 31% | 997.6 hPa | 0 mm | 6.71 m/s, 302° | - | - |
| 1788599859 | 30.56° C | 31% | 997.4 hPa | 0 mm | 4.92 m/s, 357° | - | - |
| 1788599559 | 30.56° C | 30% | 997.4 hPa | 0 mm | 12.96 m/s, 307° | - | - |
* Rain latest hour (hover to see other rain measurements)
** Current wind speed in m/s (hover to see current wind gust speed)